• In Hungary
  • List of Countries
  • For 7 days
  • Water Temperature
  • Satellite Maps
  • Weather Map
  • News
  • Weather Widgets
  • user-avatar
    Login

    Hourly Weather Kranevo

    Today, 15 December, Friday

    Time Temperature Precipitation Wind Pressure Humidity
    00:00 +9°C° 0 mm 2 mps 754 mmHg 83%
    01:00 +9°C° 0 mm 2 mps 754 mmHg 84%
    02:00 +9°C° 0 mm 2 mps 754 mmHg 86%
    03:00 +9°C° 0 mm 1 mps 754 mmHg 86%
    04:00 +9°C° 0 mm 1 mps 754 mmHg 86%
    05:00 +9°C° 0 mm 1 mps 754 mmHg 86%
    06:00 +8°C° 0 mm 2 mps 754 mmHg 85%
    07:00 +8°C° 0 mm 2 mps 754 mmHg 84%
    08:00 +8°C° 0 mm 2 mps 755 mmHg 84%
    09:00 +10°C° 0 mm 3 mps 755 mmHg 77%
    10:00 +11°C° 0 mm 3 mps 755 mmHg 69%
    11:00 +13°C° 0 mm 3 mps 755 mmHg 62%
    12:00 +13°C° 0 mm 4 mps 755 mmHg 60%
    13:00 +14°C° 0 mm 4 mps 754 mmHg 58%
    14:00 +14°C° 0 mm 4 mps 754 mmHg 56%
    15:00 +13°C° 0 mm 4 mps 754 mmHg 62%
    16:00 +12°C° 0 mm 4 mps 754 mmHg 68%
    17:00 +11°C° 0 mm 4 mps 754 mmHg 74%
    18:00 +10°C° 0 mm 5 mps 754 mmHg 77%
    19:00 +10°C° 0 mm 6 mps 753 mmHg 80%
    20:00 +11°C° 0 mm 6 mps 753 mmHg 82%
    21:00 +11°C° 0 mm 7 mps 753 mmHg 84%
    22:00 +11°C° 0 mm 7 mps 752 mmHg 85%
    23:00 +11°C° 0 mm 8 mps 752 mmHg 86%

    Tomorrow, 16 December, Saturday

    Time Temperature Precipitation Wind Pressure Humidity
    00:00 +11°C° 0 mm 8 mps 752 mmHg 86%
    01:00 +11°C° 0 mm 9 mps 751 mmHg 86%
    02:00 +11°C° 0 mm 9 mps 751 mmHg 85%
    03:00 +11°C° 0 mm 9 mps 751 mmHg 86%
    04:00 +11°C° 0 mm 9 mps 751 mmHg 86%
    05:00 +11°C° 0 mm 9 mps 750 mmHg 86%
    06:00 +11°C° 0 mm 9 mps 750 mmHg 85%
    07:00 +11°C° 0 mm 9 mps 750 mmHg 84%
    08:00 +11°C° 0 mm 9 mps 750 mmHg 83%
    09:00 +12°C° 0 mm 9 mps 750 mmHg 77%
    10:00 +13°C° 0 mm 10 mps 750 mmHg 70%
    11:00 +14°C° 0 mm 10 mps 750 mmHg 63%
    12:00 +16°C° 0 mm 10 mps 750 mmHg 61%
    13:00 +16°C° 0 mm 9 mps 750 mmHg 60%
    14:00 +17°C° 0 mm 9 mps 749 mmHg 58%
    15:00 +16°C° 0 mm 8 mps 749 mmHg 61%
    16:00 +15°C° 0 mm 7 mps 749 mmHg 65%
    17:00 +14°C° 0 mm 7 mps 750 mmHg 69%
    18:00 +14°C° 0 mm 7 mps 750 mmHg 71%
    19:00 +14°C° 0 mm 6 mps 750 mmHg 73%
    20:00 +13°C° 0 mm 6 mps 750 mmHg 76%
    21:00 +13°C° 0.2 mm 6 mps 750 mmHg 78%
    22:00 +13°C° 0.2 mm 6 mps 750 mmHg 81%
    23:00 +13°C° 0.2 mm 6 mps 750 mmHg 83%

    Day after tomorrow, 17 December, Sunday

    Time Temperature Precipitation Wind Pressure Humidity
    00:00 +13°C° 0.9 mm 6 mps 750 mmHg 84%
    01:00 +13°C° 0.9 mm 6 mps 750 mmHg 85%
    02:00 +13°C° 0.9 mm 6 mps 749 mmHg 86%
    03:00 +11°C° 2.1 mm 7 mps 749 mmHg 89%
    04:00 +11°C° 2.1 mm 7 mps 749 mmHg 91%
    05:00 +10°C° 2.1 mm 8 mps 748 mmHg 93%
    06:00 +9°C° 0.7 mm 8 mps 749 mmHg 91%
    07:00 +7°C° 0.7 mm 8 mps 749 mmHg 89%
    08:00 +7°C° 0.7 mm 8 mps 750 mmHg 86%
    09:00 +6°C° 0.1 mm 8 mps 751 mmHg 84%
    10:00 +6°C° 0.1 mm 7 mps 751 mmHg 81%
    11:00 +6°C° 0.1 mm 7 mps 752 mmHg 78%
    12:00 +6°C° 0.1 mm 7 mps 753 mmHg 76%
    13:00 +7°C° 0.1 mm 6 mps 753 mmHg 74%
    14:00 +7°C° 0.1 mm 6 mps 754 mmHg 73%
    15:00 +7°C° 0 mm 5 mps 754 mmHg 72%
    16:00 +6°C° 0 mm 5 mps 755 mmHg 72%
    17:00 +6°C° 0 mm 5 mps 756 mmHg 72%
    18:00 +6°C° 0.1 mm 4 mps 756 mmHg 72%
    19:00 +5°C° 0.1 mm 4 mps 757 mmHg 72%
    20:00 +5°C° 0.1 mm 4 mps 758 mmHg 72%
    21:00 +5°C° 0.1 mm 4 mps 758 mmHg 72%
    22:00 +5°C° 0.1 mm 4 mps 759 mmHg 72%
    23:00 +5°C° 0.1 mm 4 mps 760 mmHg 73%

    18 December, Monday

    Time Temperature Precipitation Wind Pressure Humidity
    00:00 +4°C° 0 mm 4 mps 760 mmHg 73%
    01:00 +4°C° 0 mm 4 mps 760 mmHg 73%
    02:00 +4°C° 0 mm 4 mps 761 mmHg 73%
    03:00 +3°C° 0 mm 3 mps 761 mmHg 73%
    04:00 +3°C° 0 mm 3 mps 761 mmHg 73%
    05:00 +3°C° 0 mm 3 mps 761 mmHg 74%
    06:00 +3°C° 0 mm 3 mps 762 mmHg 74%
    07:00 +3°C° 0 mm 3 mps 762 mmHg 74%
    08:00 +3°C° 0 mm 3 mps 762 mmHg 74%
    09:00 +3°C° 0 mm 3 mps 762 mmHg 72%
    10:00 +3°C° 0 mm 3 mps 763 mmHg 70%
    11:00 +4°C° 0 mm 3 mps 763 mmHg 68%
    12:00 +4°C° 0 mm 3 mps 762 mmHg 68%
    13:00 +4°C° 0 mm 3 mps 762 mmHg 67%
    14:00 +4°C° 0 mm 3 mps 762 mmHg 66%
    15:00 +4°C° 0 mm 3 mps 762 mmHg 67%
    16:00 +4°C° 0 mm 3 mps 762 mmHg 69%
    17:00 +3°C° 0 mm 3 mps 762 mmHg 70%
    18:00 +3°C° 0 mm 3 mps 762 mmHg 70%
    19:00 +3°C° 0 mm 3 mps 762 mmHg 71%
    20:00 +3°C° 0 mm 3 mps 763 mmHg 71%
    21:00 +3°C° 0 mm 3 mps 763 mmHg 71%
    22:00 +2°C° 0 mm 3 mps 763 mmHg 72%
    23:00 +2°C° 0 mm 3 mps 763 mmHg 72%

    19 December, Tuesday

    Time Temperature Precipitation Wind Pressure Humidity
    00:00 +2°C° 0 mm 3 mps 764 mmHg 73%
    01:00 0°C° 0 mm 4 mps 764 mmHg 74%
    02:00 0°C° 0 mm 4 mps 764 mmHg 75%
    03:00 -1°C° 0 mm 4 mps 764 mmHg 76%
    04:00 0°C° 0 mm 3 mps 764 mmHg 78%
    05:00 0°C° 0 mm 3 mps 764 mmHg 80%
    06:00 -1°C° 0 mm 3 mps 765 mmHg 80%
    07:00 -1°C° 0 mm 3 mps 766 mmHg 80%
    08:00 -1°C° 0 mm 3 mps 766 mmHg 80%
    09:00 0°C° 0 mm 3 mps 766 mmHg 75%
    10:00 +2°C° 0 mm 2 mps 767 mmHg 71%
    11:00 +3°C° 0 mm 2 mps 767 mmHg 66%
    12:00 +4°C° 0 mm 2 mps 767 mmHg 64%
    13:00 +4°C° 0 mm 2 mps 767 mmHg 62%
    14:00 +5°C° 0 mm 2 mps 766 mmHg 60%
    15:00 +5°C° 0 mm 1 mps 766 mmHg 63%
    16:00 +4°C° 0 mm 1 mps 766 mmHg 67%
    17:00 +4°C° 0 mm 1 mps 766 mmHg 71%
    18:00 +3°C° 0 mm 1 mps 767 mmHg 72%
    19:00 +3°C° 0 mm 1 mps 767 mmHg 73%
    20:00 +3°C° 0 mm 1 mps 767 mmHg 74%
    21:00 +3°C° 0 mm 1 mps 767 mmHg 75%
    22:00 +3°C° 0 mm 1 mps 767 mmHg 76%
    23:00 +3°C° 0 mm 1 mps 766 mmHg 77%

    20 December, Wednesday

    Time Temperature Precipitation Wind Pressure Humidity
    00:00 +2°C° 0 mm 1 mps 766 mmHg 77%
    01:00 +2°C° 0 mm 1 mps 766 mmHg 78%
    02:00 +1°C° 0 mm 2 mps 766 mmHg 78%
    03:00 +1°C° 0 mm 2 mps 766 mmHg 79%
    04:00 +1°C° 0 mm 2 mps 766 mmHg 79%
    05:00 +1°C° 0 mm 2 mps 765 mmHg 79%
    06:00 0°C° 0 mm 3 mps 766 mmHg 80%
    07:00 0°C° 0 mm 3 mps 766 mmHg 81%
    08:00 0°C° 0 mm 3 mps 766 mmHg 81%
    09:00 0°C° 0.2 mm 4 mps 766 mmHg 79%
    10:00 +1°C° 0.2 mm 4 mps 766 mmHg 77%
    11:00 +2°C° 0.2 mm 5 mps 766 mmHg 74%
    12:00 +2°C° 0.2 mm 5 mps 766 mmHg 74%
    13:00 +3°C° 0.2 mm 6 mps 766 mmHg 74%
    14:00 +3°C° 0.2 mm 6 mps 766 mmHg 73%
    15:00 +3°C° 0.1 mm 6 mps 766 mmHg 74%
    16:00 +2°C° 0.1 mm 6 mps 767 mmHg 76%
    17:00 +2°C° 0.1 mm 6 mps 767 mmHg 77%
    18:00 +1°C° 0 mm 6 mps 767 mmHg 76%
    19:00 +1°C° 0 mm 6 mps 768 mmHg 76%
    20:00 -1°C° 0 mm 7 mps 768 mmHg 75%
    21:00 -1°C° 0 mm 7 mps 768 mmHg 79%
    22:00 -1°C° 0 mm 7 mps 768 mmHg 82%
    23:00 -2°C° 0 mm 7 mps 769 mmHg 85%
    Show more